Location: Laura�t
(43.9341°N, 0.2497°E)
Time: 23:47:21
(UTC+00:00)

Meteor 2-12 Rocket - Pass Details

Date: 03 March 2021
Orbit: 936 x 957 km, 82.5° (Epoch: 17 April)

Event Time Altitude Azimuth Distance (km) Brightness Sun altitude
Rises 18:48:23 0° 180° (S) 3,583 7.5 -11.3°
Reaches altitude 10° 18:50:51 10° 179° (S) 2,644 6.8 -11.7°
Maximum altitude 18:56:52 74° 95° (E) 980 4.4 -12.8°
Drops below altitude 10° 19:02:57 10° 12° (NNE) 2,675 6.7 -13.9°
Sets 19:05:28 0° 11° (N) 3,627 7.4 -14.3°
